owner,sensor,date,latitude,longitude,vertical_datum,wind_speed,wind_to_direction,wind_speed_of_gust,qcFlag 
DISL,ioos:station:DISL:MBLA:1,2009-11-01T00:00:00Z,30.4367,-88.0117,14.2,5.6,335.5,-9999.0,'1111122,1111122,1111122' 
DISL,ioos:station:DISL:MBLA:1,2009-11-01T00:30:00Z,30.4367,-88.0117,14.2,5.46,340.6,-9999.0,'1111122,1111122,1111122' 
DISL,ioos:station:DISL:MBLA:1,2009-11-01T01:00:00Z,30.4367,-88.0117,14.2,6.11,338.7,-9999.0,'1111122,1111122,1111122' 
DISL,ioos:station:DISL:MBLA:1,2009-11-01T01:30:00Z,30.4367,-88.0117,14.2,5.74,337.9,-9999.0,'1111122,1111122,1111122' 
DISL,ioos:station:DISL:MBLA:1,2009-11-01T02:00:00Z,30.4367,-88.0117,14.2,5.79,342.7,-9999.0,'1111122,1111122,1111122' 
DISL,ioos:station:DISL:MBLA:1,2009-11-01T02:30:00Z,30.4367,-88.0117,14.2,5.56,341.6,-9999.0,'1111122,1111122,1111122' 
DISL,ioos:station:DISL:MBLA:1,2009-11-01T03:00:00Z,30.4367,-88.0117,14.2,5.48,345.3,-9999.0,'1111122,1111122,1111122' 
DISL,ioos:station:DISL:MBLA:1,2009-11-01T03:30:00Z,30.4367,-88.0117,14.2,5.37,342.0,-9999.0,'1111122,1111122,1111122' 
DISL,ioos:station:DISL:MBLA:1,2009-11-01T04:00:00Z,30.4367,-88.0117,14.2,5.2,337.4,-9999.0,'1111122,1111122,1111122' 
DISL,ioos:station:DISL:MBLA:1,2009-11-01T04:30:00Z,30.4367,-88.0117,14.2,5.08,338.6,-9999.0,'1111122,1111122,1111122' 
DISL,ioos:station:DISL:MBLA:1,2009-11-01T05:00:00Z,30.4367,-88.0117,14.2,5.85,344.2,-9999.0,'1111122,1111122,1111122' 
DISL,ioos:station:DISL:MBLA:1,2009-11-01T05:30:00Z,30.4367,-88.0117,14.2,4.63,339.7,-9999.0,'1111122,1111122,1111122' 
DISL,ioos:station:DISL:MBLA:1,2009-11-01T06:00:00Z,30.4367,-88.0117,14.2,4.67,336.5,-9999.0,'1111122,1111122,1111122' 
DISL,ioos:station:DISL:MBLA:1,2009-11-01T06:30:00Z,30.4367,-88.0117,14.2,4.09,335.3,-9999.0,'1111122,1111122,1111122' 
DISL,ioos:station:DISL:MBLA:1,2009-11-01T07:00:00Z,30.4367,-88.0117,14.2,4.31,335.0,-9999.0,'1111122,1111122,1111122' 
DISL,ioos:station:DISL:MBLA:1,2009-11-01T07:30:00Z,30.4367,-88.0117,14.2,4.33,332.4,-9999.0,'1111122,1111122,1111122' 
DISL,ioos:station:DISL:MBLA:1,2009-11-01T08:00:00Z,30.4367,-88.0117,14.2,4.82,341.1,-9999.0,'1111122,1111122,1111122' 
DISL,ioos:station:DISL:MBLA:1,2009-11-01T08:30:00Z,30.4367,-88.0117,14.2,5.28,345.5,-9999.0,'1111122,1111122,1111122' 
DISL,ioos:station:DISL:MBLA:1,2009-11-01T09:00:00Z,30.4367,-88.0117,14.2,6.42,356.5,-9999.0,'1111122,1111122,1111122' 
DISL,ioos:station:DISL:MBLA:1,2009-11-01T09:30:00Z,30.4367,-88.0117,14.2,6.22,355.9,-9999.0,'1111122,1111122,1111122' 
DISL,ioos:station:DISL:MBLA:1,2009-11-01T10:00:00Z,30.4367,-88.0117,14.2,6.28,353.5,-9999.0,'1111122,1111122,1111122' 
DISL,ioos:station:DISL:MBLA:1,2009-11-01T10:30:00Z,30.4367,-88.0117,14.2,5.02,348.6,-9999.0,'1111122,1111122,1111122' 
DISL,ioos:station:DISL:MBLA:1,2009-11-01T11:00:00Z,30.4367,-88.0117,14.2,4.88,343.6,-9999.0,'1111122,1111122,1111122' 
DISL,ioos:station:DISL:MBLA:1,2009-11-01T11:30:00Z,30.4367,-88.0117,14.2,5.06,338.8,-9999.0,'1111122,1111122,1111122' 
DISL,ioos:station:DISL:MBLA:1,2009-11-01T12:00:00Z,30.4367,-88.0117,14.2,5.1,340.6,-9999.0,'1111122,1111122,1111122' 
DISL,ioos:station:DISL:MBLA:1,2009-11-01T12:30:00Z,30.4367,-88.0117,14.2,5.13,341.6,-9999.0,'1111122,1111122,1111122' 
DISL,ioos:station:DISL:MBLA:1,2009-11-01T13:00:00Z,30.4367,-88.0117,14.2,5.11,343.2,-9999.0,'1111122,1111122,1111122' 
DISL,ioos:station:DISL:MBLA:1,2009-11-01T13:30:00Z,30.4367,-88.0117,14.2,4.94,346.9,-9999.0,'1111122,1111122,1111122' 
DISL,ioos:station:DISL:MBLA:1,2009-11-01T14:00:00Z,30.4367,-88.0117,14.2,5.02,345.6,-9999.0,'1111122,1111122,1111122' 
DISL,ioos:station:DISL:MBLA:1,2009-11-01T14:30:00Z,30.4367,-88.0117,14.2,4.29,348.2,-9999.0,'1111122,1111122,1111122' 
DISL,ioos:station:DISL:MBLA:1,2009-11-01T15:00:00Z,30.4367,-88.0117,14.2,4.51,359.2,-9999.0,'1111122,1111122,1111122' 
DISL,ioos:station:DISL:MBLA:1,2009-11-01T15:30:00Z,30.4367,-88.0117,14.2,4.79,353.3,-9999.0,'1111122,1111122,1111122' 
DISL,ioos:station:DISL:MBLA:1,2009-11-01T16:00:00Z,30.4367,-88.0117,14.2,5.01,350.2,-9999.0,'1111122,1111122,1111122' 
DISL,ioos:station:DISL:MBLA:1,2009-11-01T16:30:00Z,30.4367,-88.0117,14.2,4.42,352.2,-9999.0,'1111122,1111122,1111122' 
DISL,ioos:station:DISL:MBLA:1,2009-11-01T17:00:00Z,30.4367,-88.0117,14.2,5.0,351.6,-9999.0,'1111122,1111122,1111122' 
DISL,ioos:station:DISL:MBLA:1,2009-11-01T17:30:00Z,30.4367,-88.0117,14.2,5.48,345.9,-9999.0,'1111122,1111122,1111122' 
DISL,ioos:station:DISL:MBLA:1,2009-11-01T18:00:00Z,30.4367,-88.0117,14.2,6.18,2.964,-9999.0,'1111122,1111122,1111122' 
DISL,ioos:station:DISL:MBLA:1,2009-11-01T18:30:00Z,30.4367,-88.0117,14.2,6.32,358.9,-9999.0,'1111122,1111122,1111122' 
DISL,ioos:station:DISL:MBLA:1,2009-11-01T19:00:00Z,30.4367,-88.0117,14.2,6.91,3.128,-9999.0,'1111122,1111122,1111122' 
DISL,ioos:station:DISL:MBLA:1,2009-11-01T19:30:00Z,30.4367,-88.0117,14.2,7.49,5.566,-9999.0,'1111122,1111122,1111122' 
DISL,ioos:station:DISL:MBLA:1,2009-11-01T20:00:00Z,30.4367,-88.0117,14.2,7.15,359.9,-9999.0,'1111122,1111122,1111122' 
DISL,ioos:station:DISL:MBLA:1,2009-11-01T20:30:00Z,30.4367,-88.0117,14.2,7.16,2.659,-9999.0,'1111122,1111122,1111122' 
DISL,ioos:station:DISL:MBLA:1,2009-11-01T21:00:00Z,30.4367,-88.0117,14.2,7.59,1.241,-9999.0,'1111122,1111122,1111122' 
DISL,ioos:station:DISL:MBLA:1,2009-11-01T21:30:00Z,30.4367,-88.0117,14.2,7.61,3.25,-9999.0,'1111122,1111122,1111122' 
DISL,ioos:station:DISL:MBLA:1,2009-11-01T22:00:00Z,30.4367,-88.0117,14.2,7.77,357.6,-9999.0,'1111122,1111122,1111122' 
DISL,ioos:station:DISL:MBLA:1,2009-11-01T22:30:00Z,30.4367,-88.0117,14.2,8.28,354.1,-9999.0,'1111122,1111122,1111122' 
DISL,ioos:station:DISL:MBLA:1,2009-11-01T23:00:00Z,30.4367,-88.0117,14.2,7.76,0.098,-9999.0,'1111122,1111122,1111122' 
DISL,ioos:station:DISL:MBLA:1,2009-11-01T23:30:00Z,30.4367,-88.0117,14.2,7.9,4.597,-9999.0,'1111122,1111122,1111122' 
DISL,ioos:station:DISL:MBLA:1,2009-11-02T00:00:00Z,30.4367,-88.0117,14.2,6.81,13.7,-9999.0,'1111122,1111122,1111122' 
DISL,ioos:station:DISL:MBLA:1,2009-11-02T00:30:00Z,30.4367,-88.0117,14.2,6.73,8.67,-9999.0,'1111122,1111122,1111122' 
DISL,ioos:station:DISL:MBLA:1,2009-11-02T01:00:00Z,30.4367,-88.0117,14.2,5.87,17.88,-9999.0,'1111122,1111122,1111122' 
DISL,ioos:station:DISL:MBLA:1,2009-11-02T01:30:00Z,30.4367,-88.0117,14.2,7.15,9.65,-9999.0,'1111122,1111122,1111122' 
DISL,ioos:station:DISL:MBLA:1,2009-11-02T02:00:00Z,30.4367,-88.0117,14.2,8.47,13.67,-9999.0,'1111122,1111122,1111122' 
DISL,ioos:station:DISL:MBLA:1,2009-11-02T02:30:00Z,30.4367,-88.0117,14.2,8.89,15.44,-9999.0,'1111122,1111122,1111122' 
DISL,ioos:station:DISL:MBLA:1,2009-11-02T03:00:00Z,30.4367,-88.0117,14.2,9.38,9.72,-9999.0,'1111122,1111122,1111122' 
DISL,ioos:station:DISL:MBLA:1,2009-11-02T03:30:00Z,30.4367,-88.0117,14.2,9.46,13.42,-9999.0,'1111122,1111122,1111122' 
DISL,ioos:station:DISL:MBLA:1,2009-11-02T04:00:00Z,30.4367,-88.0117,14.2,8.78,14.61,-9999.0,'1111122,1111122,1111122' 
DISL,ioos:station:DISL:MBLA:1,2009-11-02T04:30:00Z,30.4367,-88.0117,14.2,8.32,10.76,-9999.0,'1111122,1111122,1111122' 
DISL,ioos:station:DISL:MBLA:1,2009-11-02T05:00:00Z,30.4367,-88.0117,14.2,8.52,8.38,-9999.0,'1111122,1111122,1111122' 
DISL,ioos:station:DISL:MBLA:1,2009-11-02T05:30:00Z,30.4367,-88.0117,14.2,8.83,15.15,-9999.0,'1111122,1111122,1111122' 
DISL,ioos:station:DISL:MBLA:1,2009-11-02T06:00:00Z,30.4367,-88.0117,14.2,8.77,9.47,-9999.0,'1111122,1111122,1111122' 
DISL,ioos:station:DISL:MBLA:1,2009-11-02T06:30:00Z,30.4367,-88.0117,14.2,8.44,10.22,-9999.0,'1111122,1111122,1111122' 
DISL,ioos:station:DISL:MBLA:1,2009-11-02T07:00:00Z,30.4367,-88.0117,14.2,7.99,11.85,-9999.0,'1111122,1111122,1111122' 
DISL,ioos:station:DISL:MBLA:1,2009-11-02T07:30:00Z,30.4367,-88.0117,14.2,7.58,6.856,-9999.0,'1111122,1111122,1111122' 
DISL,ioos:station:DISL:MBLA:1,2009-11-02T08:00:00Z,30.4367,-88.0117,14.2,6.94,7.96,-9999.0,'1111122,1111122,1111122' 
DISL,ioos:station:DISL:MBLA:1,2009-11-02T08:30:00Z,30.4367,-88.0117,14.2,7.43,6.86,-9999.0,'1111122,1111122,1111122' 
DISL,ioos:station:DISL:MBLA:1,2009-11-02T09:00:00Z,30.4367,-88.0117,14.2,7.01,4.974,-9999.0,'1111122,1111122,1111122' 
DISL,ioos:station:DISL:MBLA:1,2009-11-02T09:30:00Z,30.4367,-88.0117,14.2,6.84,3.536,-9999.0,'1111122,1111122,1111122' 
DISL,ioos:station:DISL:MBLA:1,2009-11-02T10:00:00Z,30.4367,-88.0117,14.2,6.52,4.646,-9999.0,'1111122,1111122,1111122' 
DISL,ioos:station:DISL:MBLA:1,2009-11-02T10:30:00Z,30.4367,-88.0117,14.2,7.21,3.355,-9999.0,'1111122,1111122,1111122' 
DISL,ioos:station:DISL:MBLA:1,2009-11-02T11:00:00Z,30.4367,-88.0117,14.2,6.9,6.098,-9999.0,'1111122,1111122,1111122' 
DISL,ioos:station:DISL:MBLA:1,2009-11-02T11:30:00Z,30.4367,-88.0117,14.2,7.16,11.98,-9999.0,'1111122,1111122,1111122' 
DISL,ioos:station:DISL:MBLA:1,2009-11-02T12:00:00Z,30.4367,-88.0117,14.2,7.23,3.963,-9999.0,'1111122,1111122,1111122' 
DISL,ioos:station:DISL:MBLA:1,2009-11-02T12:30:00Z,30.4367,-88.0117,14.2,7.52,11.37,-9999.0,'1111122,1111122,1111122' 
DISL,ioos:station:DISL:MBLA:1,2009-11-02T13:00:00Z,30.4367,-88.0117,14.2,6.93,3.967,-9999.0,'1111122,1111122,1111122' 
DISL,ioos:station:DISL:MBLA:1,2009-11-02T13:30:00Z,30.4367,-88.0117,14.2,6.85,4.793,-9999.0,'1111122,1111122,1111122' 
DISL,ioos:station:DISL:MBLA:1,2009-11-02T14:00:00Z,30.4367,-88.0117,14.2,6.97,9.12,-9999.0,'1111122,1111122,1111122' 
DISL,ioos:station:DISL:MBLA:1,2009-11-02T14:30:00Z,30.4367,-88.0117,14.2,5.96,17.63,-9999.0,'1111122,1111122,1111122' 
DISL,ioos:station:DISL:MBLA:1,2009-11-02T15:00:00Z,30.4367,-88.0117,14.2,5.51,8.27,-9999.0,'1111122,1111122,1111122' 
DISL,ioos:station:DISL:MBLA:1,2009-11-02T15:30:00Z,30.4367,-88.0117,14.2,4.95,4.38,-9999.0,'1111122,1111122,1111122' 
DISL,ioos:station:DISL:MBLA:1,2009-11-02T16:00:00Z,30.4367,-88.0117,14.2,5.23,359.4,-9999.0,'1111122,1111122,1111122' 
DISL,ioos:station:DISL:MBLA:1,2009-11-02T16:30:00Z,30.4367,-88.0117,14.2,5.39,352.3,-9999.0,'1111122,1111122,1111122' 
DISL,ioos:station:DISL:MBLA:1,2009-11-02T17:00:00Z,30.4367,-88.0117,14.2,5.55,350.8,-9999.0,'1111122,1111122,1111122' 
DISL,ioos:station:DISL:MBLA:1,2009-11-02T17:30:00Z,30.4367,-88.0117,14.2,5.0,345.2,-9999.0,'1111122,1111122,1111122' 
DISL,ioos:station:DISL:MBLA:1,2009-11-02T18:00:00Z,30.4367,-88.0117,14.2,5.27,346.1,-9999.0,'1111122,1111122,1111122' 
DISL,ioos:station:DISL:MBLA:1,2009-11-02T18:30:00Z,30.4367,-88.0117,14.2,5.42,343.6,-9999.0,'1111122,1111122,1111122' 
DISL,ioos:station:DISL:MBLA:1,2009-11-02T19:00:00Z,30.4367,-88.0117,14.2,6.07,348.3,-9999.0,'1111122,1111122,1111122' 
DISL,ioos:station:DISL:MBLA:1,2009-11-02T19:30:00Z,30.4367,-88.0117,14.2,6.92,347.8,-9999.0,'1111122,1111122,1111122' 
DISL,ioos:station:DISL:MBLA:1,2009-11-02T20:00:00Z,30.4367,-88.0117,14.2,6.73,351.4,-9999.0,'1111122,1111122,1111122' 
DISL,ioos:station:DISL:MBLA:1,2009-11-02T20:30:00Z,30.4367,-88.0117,14.2,6.93,348.7,-9999.0,'1111122,1111122,1111122' 
DISL,ioos:station:DISL:MBLA:1,2009-11-02T21:00:00Z,30.4367,-88.0117,14.2,6.87,346.9,-9999.0,'1111122,1111122,1111122' 
DISL,ioos:station:DISL:MBLA:1,2009-11-02T21:30:00Z,30.4367,-88.0117,14.2,6.32,342.2,-9999.0,'1111122,1111122,1111122' 
DISL,ioos:station:DISL:MBLA:1,2009-11-02T22:00:00Z,30.4367,-88.0117,14.2,6.56,344.5,-9999.0,'1111122,1111122,1111122' 
DISL,ioos:station:DISL:MBLA:1,2009-11-02T22:30:00Z,30.4367,-88.0117,14.2,6.4,345.3,-9999.0,'1111122,1111122,1111122' 
DISL,ioos:station:DISL:MBLA:1,2009-11-02T23:00:00Z,30.4367,-88.0117,14.2,5.76,347.4,-9999.0,'1111122,1111122,1111122' 
DISL,ioos:station:DISL:MBLA:1,2009-11-02T23:30:00Z,30.4367,-88.0117,14.2,5.3,351.0,-9999.0,'1111122,1111122,1111122' 
DISL,ioos:station:DISL:MBLA:1,2009-11-03T00:00:00Z,30.4367,-88.0117,14.2,5.51,351.2,-9999.0,'1111122,1111122,1111122' 
DISL,ioos:station:DISL:MBLA:1,2009-11-03T00:30:00Z,30.4367,-88.0117,14.2,5.91,356.5,-9999.0,'1111122,1111122,1111122' 
DISL,ioos:station:DISL:MBLA:1,2009-11-03T01:00:00Z,30.4367,-88.0117,14.2,6.13,357.1,-9999.0,'1111122,1111122,1111122' 
DISL,ioos:station:DISL:MBLA:1,2009-11-03T01:30:00Z,30.4367,-88.0117,14.2,6.47,356.0,-9999.0,'1111122,1111122,1111122' 
DISL,ioos:station:DISL:MBLA:1,2009-11-03T02:00:00Z,30.4367,-88.0117,14.2,6.49,351.1,-9999.0,'1111122,1111122,1111122' 
DISL,ioos:station:DISL:MBLA:1,2009-11-03T02:30:00Z,30.4367,-88.0117,14.2,6.74,359.0,-9999.0,'1111122,1111122,1111122' 
DISL,ioos:station:DISL:MBLA:1,2009-11-03T03:00:00Z,30.4367,-88.0117,14.2,6.25,7.79,-9999.0,'1111122,1111122,1111122' 
DISL,ioos:station:DISL:MBLA:1,2009-11-03T03:30:00Z,30.4367,-88.0117,14.2,6.31,7.5,-9999.0,'1111122,1111122,1111122' 
DISL,ioos:station:DISL:MBLA:1,2009-11-03T04:00:00Z,30.4367,-88.0117,14.2,6.62,16.23,-9999.0,'1111122,1111122,1111122' 
DISL,ioos:station:DISL:MBLA:1,2009-11-03T04:30:00Z,30.4367,-88.0117,14.2,6.12,17.11,-9999.0,'1111122,1111122,1111122' 
DISL,ioos:station:DISL:MBLA:1,2009-11-03T05:00:00Z,30.4367,-88.0117,14.2,6.21,20.04,-9999.0,'1111122,1111122,1111122' 
DISL,ioos:station:DISL:MBLA:1,2009-11-03T05:30:00Z,30.4367,-88.0117,14.2,6.74,10.6,-9999.0,'1111122,1111122,1111122' 
DISL,ioos:station:DISL:MBLA:1,2009-11-03T06:00:00Z,30.4367,-88.0117,14.2,6.87,13.69,-9999.0,'1111122,1111122,1111122' 
DISL,ioos:station:DISL:MBLA:1,2009-11-03T06:30:00Z,30.4367,-88.0117,14.2,6.57,25.71,-9999.0,'1111122,1111122,1111122' 
DISL,ioos:station:DISL:MBLA:1,2009-11-03T07:00:00Z,30.4367,-88.0117,14.2,5.25,36.74,-9999.0,'1111122,1111122,1111122' 
DISL,ioos:station:DISL:MBLA:1,2009-11-03T07:30:00Z,30.4367,-88.0117,14.2,5.5,28.59,-9999.0,'1111122,1111122,1111122' 
DISL,ioos:station:DISL:MBLA:1,2009-11-03T08:00:00Z,30.4367,-88.0117,14.2,4.43,36.7,-9999.0,'1111122,1111122,1111122' 
DISL,ioos:station:DISL:MBLA:1,2009-11-03T08:30:00Z,30.4367,-88.0117,14.2,4.75,34.02,-9999.0,'1111122,1111122,1111122' 
DISL,ioos:station:DISL:MBLA:1,2009-11-03T09:00:00Z,30.4367,-88.0117,14.2,4.41,22.06,-9999.0,'1111122,1111122,1111122' 
DISL,ioos:station:DISL:MBLA:1,2009-11-03T09:30:00Z,30.4367,-88.0117,14.2,4.24,16.69,-9999.0,'1111122,1111122,1111122' 
DISL,ioos:station:DISL:MBLA:1,2009-11-03T10:00:00Z,30.4367,-88.0117,14.2,3.98,18.94,-9999.0,'1111122,1111122,1111122' 
DISL,ioos:station:DISL:MBLA:1,2009-11-03T10:30:00Z,30.4367,-88.0117,14.2,4.43,13.04,-9999.0,'1111122,1111122,1111122' 
DISL,ioos:station:DISL:MBLA:1,2009-11-03T11:00:00Z,30.4367,-88.0117,14.2,5.31,2.373,-9999.0,'1111122,1111122,1111122' 
DISL,ioos:station:DISL:MBLA:1,2009-11-03T11:30:00Z,30.4367,-88.0117,14.2,5.4,10.01,-9999.0,'1111122,1111122,1111122' 
DISL,ioos:station:DISL:MBLA:1,2009-11-03T12:00:00Z,30.4367,-88.0117,14.2,5.32,12.34,-9999.0,'1111122,1111122,1111122' 
DISL,ioos:station:DISL:MBLA:1,2009-11-03T12:30:00Z,30.4367,-88.0117,14.2,5.37,20.84,-9999.0,'1111122,1111122,1111122' 
DISL,ioos:station:DISL:MBLA:1,2009-11-03T13:00:00Z,30.4367,-88.0117,14.2,6.99,11.21,-9999.0,'1111122,1111122,1111122' 
DISL,ioos:station:DISL:MBLA:1,2009-11-03T13:30:00Z,30.4367,-88.0117,14.2,6.59,13.85,-9999.0,'1111122,1111122,1111122' 
DISL,ioos:station:DISL:MBLA:1,2009-11-03T14:00:00Z,30.4367,-88.0117,14.2,5.13,14.74,-9999.0,'1111122,1111122,1111122' 
DISL,ioos:station:DISL:MBLA:1,2009-11-03T14:30:00Z,30.4367,-88.0117,14.2,6.53,1.795,-9999.0,'1111122,1111122,1111122' 
DISL,ioos:station:DISL:MBLA:1,2009-11-03T15:00:00Z,30.4367,-88.0117,14.2,7.39,359.4,-9999.0,'1111122,1111122,1111122' 
DISL,ioos:station:DISL:MBLA:1,2009-11-03T15:30:00Z,30.4367,-88.0117,14.2,8.09,351.4,-9999.0,'1111122,1111122,1111122' 
DISL,ioos:station:DISL:MBLA:1,2009-11-03T16:00:00Z,30.4367,-88.0117,14.2,6.81,350.3,-9999.0,'1111122,1111122,1111122' 
DISL,ioos:station:DISL:MBLA:1,2009-11-03T16:30:00Z,30.4367,-88.0117,14.2,6.5,348.1,-9999.0,'1111122,1111122,1111122' 
DISL,ioos:station:DISL:MBLA:1,2009-11-03T17:00:00Z,30.4367,-88.0117,14.2,6.63,344.8,-9999.0,'1111122,1111122,1111122' 
DISL,ioos:station:DISL:MBLA:1,2009-11-03T17:30:00Z,30.4367,-88.0117,14.2,5.3,355.4,-9999.0,'1111122,1111122,1111122' 
DISL,ioos:station:DISL:MBLA:1,2009-11-03T18:00:00Z,30.4367,-88.0117,14.2,4.62,349.8,-9999.0,'1111122,1111122,1111122' 
DISL,ioos:station:DISL:MBLA:1,2009-11-03T18:30:00Z,30.4367,-88.0117,14.2,4.95,346.6,-9999.0,'1111122,1111122,1111122' 
DISL,ioos:station:DISL:MBLA:1,2009-11-03T19:00:00Z,30.4367,-88.0117,14.2,5.86,342.6,-9999.0,'1111122,1111122,1111122' 
DISL,ioos:station:DISL:MBLA:1,2009-11-03T19:30:00Z,30.4367,-88.0117,14.2,5.83,346.6,-9999.0,'1111122,1111122,1111122' 
DISL,ioos:station:DISL:MBLA:1,2009-11-03T20:00:00Z,30.4367,-88.0117,14.2,6.01,349.0,-9999.0,'1111122,1111122,1111122' 
DISL,ioos:station:DISL:MBLA:1,2009-11-03T20:30:00Z,30.4367,-88.0117,14.2,5.31,343.3,-9999.0,'1111122,1111122,1111122' 
DISL,ioos:station:DISL:MBLA:1,2009-11-03T21:00:00Z,30.4367,-88.0117,14.2,5.64,345.6,-9999.0,'1111122,1111122,1111122' 
DISL,ioos:station:DISL:MBLA:1,2009-11-03T21:30:00Z,30.4367,-88.0117,14.2,5.15,349.7,-9999.0,'1111122,1111122,1111122' 
DISL,ioos:station:DISL:MBLA:1,2009-11-03T22:00:00Z,30.4367,-88.0117,14.2,6.27,347.8,-9999.0,'1111122,1111122,1111122' 
DISL,ioos:station:DISL:MBLA:1,2009-11-03T22:30:00Z,30.4367,-88.0117,14.2,6.21,351.4,-9999.0,'1111122,1111122,1111122' 
DISL,ioos:station:DISL:MBLA:1,2009-11-03T23:00:00Z,30.4367,-88.0117,14.2,5.34,351.0,-9999.0,'1111122,1111122,1111122' 
DISL,ioos:station:DISL:MBLA:1,2009-11-03T23:30:00Z,30.4367,-88.0117,14.2,5.7,344.3,-9999.0,'1111122,1111122,1111122' 
DISL,ioos:station:DISL:MBLA:1,2009-11-04T00:00:00Z,30.4367,-88.0117,14.2,6.67,356.6,-9999.0,'1111122,1111122,1111122' 
DISL,ioos:station:DISL:MBLA:1,2009-11-04T00:30:00Z,30.4367,-88.0117,14.2,5.78,358.5,-9999.0,'1111122,1111122,1111122' 
DISL,ioos:station:DISL:MBLA:1,2009-11-04T01:00:00Z,30.4367,-88.0117,14.2,5.08,1.584,-9999.0,'1111122,1111122,1111122' 
DISL,ioos:station:DISL:MBLA:1,2009-11-04T01:30:00Z,30.4367,-88.0117,14.2,5.02,355.8,-9999.0,'1111122,1111122,1111122' 
DISL,ioos:station:DISL:MBLA:1,2009-11-04T02:00:00Z,30.4367,-88.0117,14.2,4.26,359.4,-9999.0,'1111122,1111122,1111122' 
DISL,ioos:station:DISL:MBLA:1,2009-11-04T02:30:00Z,30.4367,-88.0117,14.2,3.12,354.8,-9999.0,'1111122,1111122,1111122' 
DISL,ioos:station:DISL:MBLA:1,2009-11-04T03:00:00Z,30.4367,-88.0117,14.2,3.12,2.207,-9999.0,'1111122,1111122,1111122' 
DISL,ioos:station:DISL:MBLA:1,2009-11-04T03:30:00Z,30.4367,-88.0117,14.2,2.87,3.042,-9999.0,'1111122,1111122,1111122' 
DISL,ioos:station:DISL:MBLA:1,2009-11-04T04:00:00Z,30.4367,-88.0117,14.2,3.25,344.5,-9999.0,'1111122,1111122,1111122' 
DISL,ioos:station:DISL:MBLA:1,2009-11-04T04:30:00Z,30.4367,-88.0117,14.2,3.86,349.0,-9999.0,'1111122,1111122,1111122' 
DISL,ioos:station:DISL:MBLA:1,2009-11-04T05:00:00Z,30.4367,-88.0117,14.2,4.61,354.0,-9999.0,'1111122,1111122,1111122' 
DISL,ioos:station:DISL:MBLA:1,2009-11-04T05:30:00Z,30.4367,-88.0117,14.2,5.31,4.187,-9999.0,'1111122,1111122,1111122' 
DISL,ioos:station:DISL:MBLA:1,2009-11-04T06:00:00Z,30.4367,-88.0117,14.2,6.28,13.98,-9999.0,'1111122,1111122,1111122' 
DISL,ioos:station:DISL:MBLA:1,2009-11-04T06:30:00Z,30.4367,-88.0117,14.2,6.15,9.79,-9999.0,'1111122,1111122,1111122' 
DISL,ioos:station:DISL:MBLA:1,2009-11-04T07:00:00Z,30.4367,-88.0117,14.2,5.63,4.032,-9999.0,'1111122,1111122,1111122' 
DISL,ioos:station:DISL:MBLA:1,2009-11-04T07:30:00Z,30.4367,-88.0117,14.2,5.15,11.68,-9999.0,'1111122,1111122,1111122' 
DISL,ioos:station:DISL:MBLA:1,2009-11-04T08:00:00Z,30.4367,-88.0117,14.2,5.52,11.38,-9999.0,'1111122,1111122,1111122' 
DISL,ioos:station:DISL:MBLA:1,2009-11-04T08:30:00Z,30.4367,-88.0117,14.2,6.75,10.49,-9999.0,'1111122,1111122,1111122' 
DISL,ioos:station:DISL:MBLA:1,2009-11-04T09:00:00Z,30.4367,-88.0117,14.2,6.21,7.8,-9999.0,'1111122,1111122,1111122' 
DISL,ioos:station:DISL:MBLA:1,2009-11-04T09:30:00Z,30.4367,-88.0117,14.2,7.28,6.289,-9999.0,'1111122,1111122,1111122' 
DISL,ioos:station:DISL:MBLA:1,2009-11-04T10:00:00Z,30.4367,-88.0117,14.2,6.94,7.27,-9999.0,'1111122,1111122,1111122' 
DISL,ioos:station:DISL:MBLA:1,2009-11-04T10:30:00Z,30.4367,-88.0117,14.2,6.92,9.84,-9999.0,'1111122,1111122,1111122' 
DISL,ioos:station:DISL:MBLA:1,2009-11-04T11:00:00Z,30.4367,-88.0117,14.2,6.98,4.503,-9999.0,'1111122,1111122,1111122' 
DISL,ioos:station:DISL:MBLA:1,2009-11-04T11:30:00Z,30.4367,-88.0117,14.2,7.53,7.07,-9999.0,'1111122,1111122,1111122' 
DISL,ioos:station:DISL:MBLA:1,2009-11-04T12:00:00Z,30.4367,-88.0117,14.2,7.48,11.57,-9999.0,'1111122,1111122,1111122' 
DISL,ioos:station:DISL:MBLA:1,2009-11-04T12:30:00Z,30.4367,-88.0117,14.2,5.82,15.5,-9999.0,'1111122,1111122,1111122' 
DISL,ioos:station:DISL:MBLA:1,2009-11-04T13:00:00Z,30.4367,-88.0117,14.2,6.06,9.46,-9999.0,'1111122,1111122,1111122' 
DISL,ioos:station:DISL:MBLA:1,2009-11-04T13:30:00Z,30.4367,-88.0117,14.2,5.78,14.32,-9999.0,'1111122,1111122,1111122' 
DISL,ioos:station:DISL:MBLA:1,2009-11-04T14:00:00Z,30.4367,-88.0117,14.2,4.78,8.28,-9999.0,'1111122,1111122,1111122' 
DISL,ioos:station:DISL:MBLA:1,2009-11-04T14:30:00Z,30.4367,-88.0117,14.2,4.39,8.34,-9999.0,'1111122,1111122,1111122' 
DISL,ioos:station:DISL:MBLA:1,2009-11-04T15:00:00Z,30.4367,-88.0117,14.2,5.15,357.1,-9999.0,'1111122,1111122,1111122' 
DISL,ioos:station:DISL:MBLA:1,2009-11-04T15:30:00Z,30.4367,-88.0117,14.2,4.75,357.9,-9999.0,'1111122,1111122,1111122' 
DISL,ioos:station:DISL:MBLA:1,2009-11-04T16:00:00Z,30.4367,-88.0117,14.2,4.56,353.2,-9999.0,'1111122,1111122,1111122' 
DISL,ioos:station:DISL:MBLA:1,2009-11-04T16:30:00Z,30.4367,-88.0117,14.2,4.41,349.2,-9999.0,'1111122,1111122,1111122' 
DISL,ioos:station:DISL:MBLA:1,2009-11-04T17:00:00Z,30.4367,-88.0117,14.2,4.21,343.2,-9999.0,'1111122,1111122,1111122' 
DISL,ioos:station:DISL:MBLA:1,2009-11-04T17:30:00Z,30.4367,-88.0117,14.2,4.84,344.9,-9999.0,'1111122,1111122,1111122' 
DISL,ioos:station:DISL:MBLA:1,2009-11-04T18:30:00Z,30.4367,-88.0117,14.2,4.5,339.5,-9999.0,'1111122,1111122,1111122' 
DISL,ioos:station:DISL:MBLA:1,2009-11-04T19:00:00Z,30.4367,-88.0117,14.2,4.1,342.7,-9999.0,'1111122,1111122,1111122' 
DISL,ioos:station:DISL:MBLA:1,2009-11-04T19:30:00Z,30.4367,-88.0117,14.2,4.23,340.3,-9999.0,'1111122,1111122,1111122' 
DISL,ioos:station:DISL:MBLA:1,2009-11-04T20:00:00Z,30.4367,-88.0117,14.2,3.52,346.9,-9999.0,'1111122,1111122,1111122' 
DISL,ioos:station:DISL:MBLA:1,2009-11-04T20:30:00Z,30.4367,-88.0117,14.2,2.2,350.9,-9999.0,'1111122,1111122,1111122' 
DISL,ioos:station:DISL:MBLA:1,2009-11-04T21:30:00Z,30.4367,-88.0117,14.2,4.11,350.5,-9999.0,'1111122,1111122,1111122' 
DISL,ioos:station:DISL:MBLA:1,2009-11-04T22:00:00Z,30.4367,-88.0117,14.2,5.05,347.9,-9999.0,'1111122,1111122,1111122' 
DISL,ioos:station:DISL:MBLA:1,2009-11-04T22:30:00Z,30.4367,-88.0117,14.2,4.66,345.3,-9999.0,'1111122,1111122,1111122' 
DISL,ioos:station:DISL:MBLA:1,2009-11-04T23:00:00Z,30.4367,-88.0117,14.2,4.23,348.7,-9999.0,'1111122,1111122,1111122' 
DISL,ioos:station:DISL:MBLA:1,2009-11-04T23:30:00Z,30.4367,-88.0117,14.2,4.87,350.1,-9999.0,'1111122,1111122,1111122' 
DISL,ioos:station:DISL:MBLA:1,2009-11-05T00:00:00Z,30.4367,-88.0117,14.2,4.86,351.9,-9999.0,'1111122,1111122,1111122' 
DISL,ioos:station:DISL:MBLA:1,2009-11-05T00:30:00Z,30.4367,-88.0117,14.2,4.8,344.8,-9999.0,'1111122,1111122,1111122' 
DISL,ioos:station:DISL:MBLA:1,2009-11-05T01:00:00Z,30.4367,-88.0117,14.2,4.26,359.8,-9999.0,'1111122,1111122,1111122' 
DISL,ioos:station:DISL:MBLA:1,2009-11-05T01:30:00Z,30.4367,-88.0117,14.2,3.65,7.62,-9999.0,'1111122,1111122,1111122' 
DISL,ioos:station:DISL:MBLA:1,2009-11-05T02:00:00Z,30.4367,-88.0117,14.2,3.95,4.962,-9999.0,'1111122,1111122,1111122' 
DISL,ioos:station:DISL:MBLA:1,2009-11-05T02:30:00Z,30.4367,-88.0117,14.2,3.56,1.542,-9999.0,'1111122,1111122,1111122' 
DISL,ioos:station:DISL:MBLA:1,2009-11-05T03:00:00Z,30.4367,-88.0117,14.2,3.58,0.828,-9999.0,'1111122,1111122,1111122' 
DISL,ioos:station:DISL:MBLA:1,2009-11-05T03:30:00Z,30.4367,-88.0117,14.2,3.65,3.893,-9999.0,'1111122,1111122,1111122' 
DISL,ioos:station:DISL:MBLA:1,2009-11-05T04:00:00Z,30.4367,-88.0117,14.2,4.67,3.576,-9999.0,'1111122,1111122,1111122' 
DISL,ioos:station:DISL:MBLA:1,2009-11-05T04:30:00Z,30.4367,-88.0117,14.2,4.28,1.206,-9999.0,'1111122,1111122,1111122' 
DISL,ioos:station:DISL:MBLA:1,2009-11-05T05:00:00Z,30.4367,-88.0117,14.2,5.06,359.5,-9999.0,'1111122,1111122,1111122' 